When you browse on this site, cookies collect data to enhance your experience and personalize the content and advertising you see.
Visit our Privacy Policy to learn more. By continuing to use the site, you agree to this use of cookies and data.
  • Em Portugal
  • Lista de países
  • Para 7 dias
  • Temperatura da água
  • Mapas de satélite
  • Mapa do tempo
  • Widgets de tempo
  • user-avatar
    Iniciar Sessão

    Previsão horária em Mishutino

    Hoje, 26 Abril, Sexta-feira

    Tempo Temperatura Precipitação Vento Pressão Humidade
    00:00 +13°C° 0 mm 1 m/s 750 mmHg 54%
    01:00 +13°C° 0 mm 2 m/s 750 mmHg 57%
    02:00 +12°C° 0 mm 2 m/s 750 mmHg 60%
    03:00 +12°C° 0 mm 2 m/s 750 mmHg 63%
    04:00 +10°C° 0 mm 2 m/s 750 mmHg 66%
    05:00 +10°C° 0 mm 2 m/s 750 mmHg 69%
    06:00 +12°C° 0 mm 2 m/s 750 mmHg 65%
    07:00 +14°C° 0 mm 2 m/s 750 mmHg 61%
    08:00 +15°C° 0 mm 2 m/s 750 mmHg 57%
    09:00 +17°C° 0 mm 2 m/s 750 mmHg 52%
    10:00 +19°C° 0 mm 2 m/s 749 mmHg 47%
    11:00 +20°C° 0 mm 2 m/s 749 mmHg 42%
    12:00 +22°C° 0 mm 1 m/s 749 mmHg 39%
    13:00 +23°C° 0 mm 1 m/s 749 mmHg 36%
    14:00 +24°C° 0 mm 1 m/s 748 mmHg 33%
    15:00 +23°C° 0 mm 1 m/s 748 mmHg 36%
    16:00 +22°C° 0 mm 1 m/s 747 mmHg 40%
    17:00 +21°C° 0 mm 1 m/s 747 mmHg 44%
    18:00 +20°C° 0 mm 1 m/s 747 mmHg 47%
    19:00 +18°C° 0 mm 1 m/s 746 mmHg 51%
    20:00 +16°C° 0 mm 1 m/s 746 mmHg 54%
    21:00 +15°C° 0.5 mm 1 m/s 746 mmHg 62%
    22:00 +14°C° 0.5 mm 1 m/s 746 mmHg 69%
    23:00 +13°C° 0.5 mm 1 m/s 746 mmHg 76%

    Amanhã, 27 Abril, Sábado

    Tempo Temperatura Precipitação Vento Pressão Humidade
    00:00 +12°C° 0.1 mm 1 m/s 745 mmHg 77%
    01:00 +12°C° 0.1 mm 1 m/s 745 mmHg 78%
    02:00 +12°C° 0.1 mm 1 m/s 745 mmHg 79%
    03:00 +12°C° 0 mm 1 m/s 744 mmHg 78%
    04:00 +12°C° 0 mm 1 m/s 744 mmHg 76%
    05:00 +12°C° 0 mm 1 m/s 744 mmHg 75%
    06:00 +14°C° 0 mm 1 m/s 743 mmHg 69%
    07:00 +15°C° 0 mm 2 m/s 743 mmHg 64%
    08:00 +16°C° 0 mm 2 m/s 743 mmHg 59%
    09:00 +18°C° 0 mm 2 m/s 742 mmHg 52%
    10:00 +20°C° 0 mm 2 m/s 742 mmHg 45%
    11:00 +23°C° 0 mm 2 m/s 742 mmHg 38%
    12:00 +21°C° 0 mm 2 m/s 741 mmHg 39%
    13:00 +21°C° 0 mm 2 m/s 741 mmHg 41%
    14:00 +21°C° 0 mm 2 m/s 741 mmHg 42%
    15:00 +19°C° 0.2 mm 2 m/s 740 mmHg 52%
    16:00 +18°C° 0.2 mm 2 m/s 740 mmHg 61%
    17:00 +16°C° 0.2 mm 2 m/s 740 mmHg 70%
    18:00 +15°C° 0.3 mm 2 m/s 740 mmHg 74%
    19:00 +14°C° 0.3 mm 2 m/s 741 mmHg 77%
    20:00 +12°C° 0.3 mm 3 m/s 741 mmHg 81%
    21:00 +11°C° 0 mm 3 m/s 742 mmHg 81%
    22:00 +10°C° 0 mm 4 m/s 742 mmHg 82%
    23:00 +8°C° 0 mm 4 m/s 743 mmHg 83%

    Depois de amanhã, 28 Abril, Domingo

    Tempo Temperatura Precipitação Vento Pressão Humidade
    00:00 +7°C° 0 mm 4 m/s 743 mmHg 80%
    01:00 +6°C° 0 mm 4 m/s 744 mmHg 78%
    02:00 +5°C° 0 mm 5 m/s 744 mmHg 75%
    03:00 +3°C° 0 mm 5 m/s 745 mmHg 74%
    04:00 +3°C° 0 mm 4 m/s 746 mmHg 73%
    05:00 0°C° 0 mm 4 m/s 746 mmHg 72%
    06:00 +1°C° 0 mm 4 m/s 747 mmHg 65%
    07:00 +1°C° 0 mm 4 m/s 748 mmHg 59%
    08:00 +2°C° 0 mm 5 m/s 748 mmHg 52%
    09:00 +3°C° 0 mm 5 m/s 748 mmHg 46%
    10:00 +5°C° 0 mm 4 m/s 749 mmHg 40%
    11:00 +6°C° 0 mm 4 m/s 749 mmHg 34%
    12:00 +6°C° 0 mm 4 m/s 749 mmHg 34%
    13:00 +7°C° 0 mm 4 m/s 749 mmHg 34%
    14:00 +8°C° 0 mm 4 m/s 749 mmHg 33%
    15:00 +7°C° 0 mm 4 m/s 749 mmHg 35%
    16:00 +7°C° 0 mm 4 m/s 750 mmHg 38%
    17:00 +7°C° 0 mm 4 m/s 750 mmHg 40%
    18:00 +5°C° 0 mm 3 m/s 750 mmHg 44%
    19:00 +4°C° 0 mm 3 m/s 751 mmHg 48%
    20:00 +3°C° 0 mm 2 m/s 751 mmHg 53%
    21:00 +2°C° 0 mm 2 m/s 752 mmHg 54%
    22:00 +1°C° 0 mm 2 m/s 752 mmHg 56%
    23:00 +1°C° 0 mm 2 m/s 752 mmHg 57%

    29 Abril, Segunda-feira

    Tempo Temperatura Precipitação Vento Pressão Humidade
    00:00 -1°C° 0 mm 2 m/s 753 mmHg 60%
    01:00 -2°C° 0 mm 2 m/s 753 mmHg 63%
    02:00 -2°C° 0 mm 2 m/s 753 mmHg 65%
    03:00 -2°C° 0 mm 2 m/s 753 mmHg 65%
    04:00 0°C° 0 mm 1 m/s 753 mmHg 64%
    05:00 0°C° 0 mm 1 m/s 754 mmHg 63%
    06:00 +1°C° 0 mm 2 m/s 754 mmHg 54%
    07:00 +3°C° 0 mm 2 m/s 754 mmHg 46%
    08:00 +4°C° 0 mm 2 m/s 754 mmHg 37%
    09:00 +6°C° 0 mm 2 m/s 754 mmHg 34%
    10:00 +7°C° 0 mm 2 m/s 753 mmHg 31%
    11:00 +8°C° 0 mm 2 m/s 753 mmHg 28%
    12:00 +10°C° 0 mm 1 m/s 753 mmHg 28%
    13:00 +11°C° 0 mm 1 m/s 752 mmHg 27%
    14:00 +12°C° 0 mm 1 m/s 752 mmHg 26%
    15:00 +11°C° 0 mm 1 m/s 751 mmHg 27%
    16:00 +10°C° 0 mm 1 m/s 751 mmHg 28%
    17:00 +10°C° 0 mm 1 m/s 751 mmHg 28%
    18:00 +8°C° 0 mm 1 m/s 751 mmHg 34%
    19:00 +5°C° 0 mm 0 m/s 750 mmHg 39%
    20:00 +3°C° 0 mm 0 m/s 750 mmHg 44%
    21:00 +3°C° 0 mm 0 m/s 750 mmHg 46%
    22:00 +4°C° 0 mm 1 m/s 750 mmHg 48%
    23:00 +3°C° 0 mm 1 m/s 750 mmHg 50%

    30 Abril, Terça-feira

    Tempo Temperatura Precipitação Vento Pressão Humidade
    00:00 +3°C° 0 mm 1 m/s 750 mmHg 51%
    01:00 +3°C° 0 mm 1 m/s 750 mmHg 52%
    02:00 +3°C° 0 mm 1 m/s 750 mmHg 53%
    03:00 +3°C° 0 mm 1 m/s 750 mmHg 53%
    04:00 +3°C° 0 mm 1 m/s 749 mmHg 54%
    05:00 +4°C° 0 mm 1 m/s 749 mmHg 54%
    06:00 +5°C° 0 mm 1 m/s 749 mmHg 49%
    07:00 +7°C° 0 mm 1 m/s 749 mmHg 44%
    08:00 +9°C° 0 mm 1 m/s 749 mmHg 38%
    09:00 +10°C° 0 mm 0 m/s 748 mmHg 36%
    10:00 +11°C° 0 mm 0 m/s 748 mmHg 33%
    11:00 +12°C° 0 mm 0 m/s 748 mmHg 31%
    12:00 +12°C° 0 mm 0 m/s 747 mmHg 31%
    13:00 +13°C° 0 mm 0 m/s 747 mmHg 31%
    14:00 +13°C° 0 mm 0 m/s 747 mmHg 32%
    15:00 +12°C° 0 mm 0 m/s 746 mmHg 33%
    16:00 +11°C° 0 mm 0 m/s 746 mmHg 34%
    17:00 +11°C° 0 mm 0 m/s 746 mmHg 35%
    18:00 +9°C° 0 mm 0 m/s 746 mmHg 40%
    19:00 +7°C° 0 mm 0 m/s 746 mmHg 45%
    20:00 +6°C° 0 mm 0 m/s 746 mmHg 50%
    21:00 +6°C° 0 mm 1 m/s 745 mmHg 52%
    22:00 +5°C° 0 mm 1 m/s 745 mmHg 55%
    23:00 +5°C° 0 mm 1 m/s 745 mmHg 57%

    1 Maio, Quarta-feira

    Tempo Temperatura Precipitação Vento Pressão Humidade
    00:00 +4°C° 0 mm 1 m/s 745 mmHg 59%
    01:00 +4°C° 0 mm 1 m/s 745 mmHg 61%
    02:00 +4°C° 0 mm 1 m/s 745 mmHg 62%
    03:00 +4°C° 0 mm 1 m/s 744 mmHg 63%
    04:00 +4°C° 0 mm 1 m/s 744 mmHg 64%
    05:00 +4°C° 0 mm 1 m/s 744 mmHg 64%
    06:00 +6°C° 0 mm 1 m/s 744 mmHg 58%
    07:00 +7°C° 0 mm 2 m/s 744 mmHg 51%
    08:00 +9°C° 0 mm 2 m/s 743 mmHg 45%
    09:00 +10°C° 0 mm 2 m/s 743 mmHg 41%
    10:00 +11°C° 0 mm 3 m/s 742 mmHg 38%
    11:00 +12°C° 0 mm 3 m/s 742 mmHg 34%
    12:00 +13°C° 0 mm 3 m/s 741 mmHg 33%
    13:00 +13°C° 0 mm 3 m/s 741 mmHg 33%
    14:00 +14°C° 0 mm 4 m/s 740 mmHg 32%
    15:00 +13°C° 0 mm 3 m/s 740 mmHg 34%
    16:00 +13°C° 0 mm 3 m/s 739 mmHg 35%
    17:00 +13°C° 0 mm 3 m/s 738 mmHg 37%
    18:00 +11°C° 0 mm 3 m/s 738 mmHg 43%
    19:00 +9°C° 0 mm 3 m/s 738 mmHg 49%
    20:00 +7°C° 0 mm 2 m/s 737 mmHg 55%
    21:00 +7°C° 0 mm 2 m/s 737 mmHg 55%
    22:00 +8°C° 0 mm 3 m/s 737 mmHg 55%
    23:00 +8°C° 0 mm 3 m/s 736 mmHg 54%
    Mostrar mais